SCP
0 0 0 0 0 0 0 0 0 0 0 0 0 0 0 0 0 0 0 0 0 0 0 0 0 0 0 0 0 0 0 0 0 0 0 0 0 0 0 0 0 0 0
0 0 0 0 0 0 0 0 0 0 0 0 0 0 0 0 0 0 0 0 0 0 0 0 0 0 0 0 0 0 0 0 0 0 0 0 0 0 0 0 0 0 0
0 0 0 0 0 0 0 0 0 0 0 0 0 0 0 0 0 0 0 0 0 0 0 0 0 0 0 0 0 0 0 0 0 0 0 0 0 0 0 0 0 0 0
0 0 0 0 0 0 0 0 0 0 0 0 0 0 0 0 0 0 0 0 0 0 0 0 0 0 0 0 0 0 0 0 0 0 0 0 0 0 0 0 0 0 0
0 0 0 0 0 0 0 0 0 0 0 0 0 0 0 0 0 0 0 0 0 0 0 0 0 0 0 0 0 0 0 0 0 0 0 0 0 0 0 0 0 0 0
0 0 0 0 0 0 0 0 0 0 0 0 0 0 0 0 0 0 0 0 0 0 0 0 0 0 0 0 0 0 0 0 0 0 0 0 0 0 0 0 0 0 0
0 0 0 0 0 0 0 0 0 0 0 0 0 0 0 0 0 0 0 0 0 0 0 0 0 0 0 0 0 0 0 0 0 0 0 0 0 0 0 0 0 0 0
0 0 0 0 0 0 0 0 0 0 0 0 0 0 0 0 0 0 0 0 0 0 0 0 0 0 0 0 0 0 0 0 0 0 0 0 0 0 0 0 0 0 0
0 0 0 0 0 0 0 0 0 0 0 0 0 0 0 0 0 0 0 0 0 0 0 0 0 0 0 0 0 0 0 0 0 0 0 0 0 0 0 0 0 0 0
0 0 0 0 0 0 0 0 0 0 0 0 0 0 0 0 0 0 0 0 0 0 0 0 0 0 0 0 0 0 0 0 0 0 0 0 0 0 0 0 0 0 0
0 0 0 0 0 0 0 0 0 0 0 0 0 0 0 0 0 0 0 0 0 0 0 0 0 0 0 0 0 0 0 0 0 0 0 0 0 0 0 0 0 0 0
0 0 0 0 0 0 0 0 0 0 0 0 0 0 0 0 0 0 0 0 0 0 0 0 0 0 0 0 0 0 0 0 0 0 0 0 0 0 0 0 0 0 0
0 0 0 0 0 0 0 0 0 0 0 0 0 0 0 0 0 0 0 0 0 0 0 0 0 0 0 0 0 0 0 0 0 0 0 0 0 0 0 0 0 0 0
0 0 0 0 0 0 0 0 0 0 0 0 0 0 0 0 0 0 0 0 0 0 0 0 0 0 0 0 0 0 0 0 0 0 0 0 0 0 0 0 0 0 0
0 0 0 0 0 0 0 0 0 0 0 0 0 0 0 0 0 0 0 0 0 0 0 0 0 0 0 0 0 0 0 0 0 0 0 0 0 0 0 0 0 0 0
0 0 0 0 0 0 0 0 0 0 0 0 0 0 0 0 0 0 0 0 0 0 0 0 0 0 0 0 0 0 0 0 0 0 0 0 0 0 0 0 0 0 0
0 0 0 0 0 0 0 0 0 0 0 0 0 0 0 0 0 0 0 0 0 0 0 0 0 0 0 0 0 0 0 0 0 0 0 0 0 0 0 0 0 0 0
0 0 0 0 0 0 0 0 0 0 0 0 0 0 0 0 0 0 0 0 0 0 0 0 0 0 0 0 0 0 0 0 0 0 0 0 0 0 0 0 0 0 0
0 0 0 0 0 0 0 0 0 0 0 0 0 0 0 0 0 0 0 0 0 0 0 0 0 0 0 0 0 0 0 0 0 0 0 0 0 0 0 0 0 0 0
0 0 0 0 0 0 0 0 0 0 0 0 0 0 0 0 0 0 0 0 0 0 0 0 0 0 0 0 0 0 0 0 0 0 0 0 0 0 0 0 0 0 0
0 0 0 0 0 0 0 0 0 0 0 0 0 0 0 0 0 0 0 0 0 0 0 0 0 0 0 0 0 0 0 0 0 0 0 0 0 0 0 0 0 0 0
0 0 0 0 0 0 0 0 0 0 0 0 0 0 0 0 0 0 0 0 0 0 0 0 0 0 0 0 0 0 0 0 0 0 0 0 0 0 0 0 0 0 0
0 0 0 0 0 0 0 0 0 0 0 0 0 0 0 0 0 0 0 0 0 0 0 0 0 0 0 0 0 0 0 0 0 0 0 0 0 0 0 0 0 0 0
0 0 0 0 0 0 0 0 0 0 0 0 0 0 0 0 0 0 0 0 0 0 0 0 0 0 0 0 0 0 0 0 0 0 0 0 0 0 0 0 0 0 0
0 0 0 0 0 0 0 0 0 0 0 0 0 0 0 0 0 0 0 0 0 0 0 0 0 0 0 0 0 0 0 0 0 0 0 0 0 0 0 0 0 0 0
0 0 0 0 0 0 0 0 0 0 0 0 0 0 0 0 0 0 0 0 0 0 0 0 0 0 0 0 0 0 0 0 0 0 0 0 0 0 0 0 0 0 0
Wind_Speed
1 1 2 2 5 7 8 8 8 9 9 9 9 10 10 9 9 9 9 9 9 9 9 10 10 10 10 10 9 9 9 9 8 8 8 8 8 8 8 6 5 5 8
1 1 2 2 5 7 8 8 8 8 9 9 9 9 10 10 9 9 9 8 9 9 9 10 9 10 10 9 9 9 9 8 8 7 6 6 8 8 8 7 7 6 8
3 3 4 4 6 7 8 8 8 8 9 9 9 9 9 9 9 9 8 8 8 9 9 9 9 9 9 8 8 9 9 9 7 6 2 3 6 8 7 8 8 8 8
3 4 4 5 7 8 8 8 8 8 8 8 9 9 9 9 9 9 9 9 9 9 9 9 8 8 8 8 8 8 8 8 7 3 2 4 5 7 7 7 7 8 8
4 4 5 7 8 9 9 9 8 8 8 8 8 8 8 9 9 9 9 9 9 9 8 8 8 8 7 8 8 8 8 7 5 3 4 4 4 7 6 7 7 8 8
5 5 6 7 8 9 9 9 9 9 9 9 9 8 8 8 8 8 8 8 8 8 8 8 8 8 8 8 8 7 7 5 2 4 4 4 4 7 6 7 6 7 7
5 5 6 8 8 9 9 10 10 10 10 9 10 10 10 9 9 9 8 8 8 8 8 8 8 8 7 7 7 7 6 5 3 4 4 4 5 7 7 7 7 6 6
5 5 6 8 9 9 9 10 10 10 10 10 10 11 11 11 11 10 9 9 8 8 8 8 8 6 7 7 7 7 6 5 3 4 4 4 7 7 7 7 7 7 7
6 5 5 5 6 8 9 10 10 10 11 11 11 10 11 11 11 11 11 10 9 9 9 9 8 8 7 7 7 7 7 5 3 3 4 4 7 6 6 6 6 6 6
5 5 5 5 4 5 6 9 9 10 10 10 11 10 10 10 10 10 10 10 9 9 9 9 9 8 7 7 7 6 5 2 4 4 3 5 7 6 6 6 6 6 5
5 4 3 4 4 4 5 6 6 8 9 8 7 8 6 5 5 6 10 11 10 9 9 9 9 8 6 6 7 5 2 2 4 4 4 7 8 7 7 7 6 6 6
3 3 3 3 3 3 4 4 3 4 4 4 4 4 3 4 4 5 7 9 9 9 8 8 7 5 3 3 4 2 2 4 3 4 5 9 9 8 8 7 7 7 7
2 3 3 2 3 3 3 3 2 2 2 3 4 4 3 3 3 3 2 3 4 5 5 5 4 4 4 3 3 3 3 3 3 3 6 10 9 8 8 7 7 7 6
3 3 3 3 2 3 3 2 2 2 2 2 3 3 2 2 2 2 2 3 3 2 3 4 3 4 4 4 4 4 4 3 3 3 6 10 10 9 8 8 7 7 7
3 2 2 2 2 2 2 2 2 2 2 2 2 2 2 2 2 2 2 2 3 3 3 3 3 4 4 4 3 4 4 4 3 3 3 9 9 9 9 9 8 8 8
3 3 2 2 2 2 2 2 1 1 1 1 1 2 2 2 2 2 2 2 3 3 3 2 3 3 3 3 3 4 3 3 4 3 3 4 8 10 10 10 9 9 9
4 3 2 2 2 2 2 2 1 1 1 1 1 2 2 2 2 1 1 2 2 2 2 2 3 2 2 3 3 3 3 3 3 4 3 3 4 7 10 10 10 10 10
4 3 3 2 2 2 1 2 1 1 1 2 2 1 2 2 2 1 1 2 2 2 2 2 2 2 2 2 2 2 2 2 3 3 3 3 3 4 6 10 10 11 11
4 4 4 3 3 2 1 1 1 1 1 1 1 1 2 2 2 1 1 2 2 2 2 2 2 2 2 2 2 2 1 1 2 3 3 4 4 4 4 6 8 10 10
5 4 4 3 3 2 1 1 1 1 1 1 1 1 1 1 2 1 1 2 1 1 2 2 2 2 2 2 1 1 1 1 1 2 3 3 3 4 5 5 4 5 8
5 5 5 4 3 3 2 2 2 1 1 1 1 2 1 2 1 1 1 1 1 1 1 1 1 2 2 1 0 0 0 1 1 2 2 2 3 4 5 5 4 4 4
4 5 5 4 4 4 2 2 1 1 1 0 0 1 1 1 1 1 1 1 1 1 1 1 1 1 1 2 2 1 1 1 1 1 1 2 3 3 4 4 4 5 5
5 4 4 5 4 4 3 2 2 2 1 1 1 0 1 1 1 1 1 1 1 0 0 1 1 1 1 1 2 2 2 2 2 1 1 1 2 3 3 4 4 5 5
5 4 4 4 4 4 4 4 4 3 2 1 1 0 1 1 1 1 1 0 0 0 0 1 1 1 1 0 1 2 2 2 2 2 1 1 3 3 4 4 4 4 5
5 4 4 4 5 4 4 4 4 3 2 1 1 1 0 1 1 1 1 1 1 1 1 1 1 0 0 1 1 1 1 1 2 3 3 3 3 3 3 4 3 4 4
4 4 4 4 4 5 4 4 4 4 3 2 2 1 1 0 0 1 1 1 0 0 0 1 1 0 0 1 1 1 1 1 1 2 3 4 4 3 4 3 3 3 4
Wind_Direction
97 54 21 47 95 98 95 89 86 84 82 84 87 84 81 80 79 75 72 73 72 73 73 72 74 74 74 74 74 73 71 69 66 64 64 64 61 65 70 63 59 71 68
107 126 61 55 94 97 95 90 87 85 85 83 83 82 79 75 74 72 72 71 68 71 73 73 73 74 73 73 73 72 70 68 64 60 57 74 68 61 67 64 52 57 64
102 105 102 65 85 94 91 87 86 84 83 84 82 79 77 73 70 68 68 67 67 68 71 73 72 71 72 74 74 72 68 63 59 55 41 69 76 66 66 65 61 61 60
103 101 92 68 79 86 86 86 84 83 82 82 81 79 76 73 69 67 65 66 66 67 67 67 70 71 69 70 73 71 65 60 52 33 58 56 63 67 62 63 60 63 61
98 94 80 60 72 80 83 82 81 80 78 78 78 76 73 70 67 65 63 63 61 62 63 65 68 70 68 68 71 69 63 57 47 44 56 56 57 61 58 59 63 65 63
95 90 81 60 72 78 80 80 79 77 74 72 72 71 69 67 66 64 62 61 60 58 57 59 62 64 64 63 66 65 60 46 36 52 52 51 53 57 52 60 67 65 63
93 86 85 64 69 75 78 76 76 76 73 71 69 67 66 62 59 58 58 59 59 58 57 57 59 61 63 64 62 62 54 31 32 48 48 50 49 50 51 54 59 61 61
84 82 83 68 66 70 74 75 74 74 73 71 68 67 66 64 58 53 51 53 54 54 55 54 54 61 66 65 62 58 48 26 48 49 47 49 45 42 47 50 52 53 49
83 81 78 82 84 75 70 68 69 70 69 68 68 66 64 61 57 49 43 47 52 53 52 51 51 55 62 64 64 59 50 27 34 48 44 45 42 38 41 46 45 45 44
76 76 80 81 81 85 86 70 65 66 65 65 63 60 61 62 58 49 45 44 46 49 51 51 50 51 54 60 59 55 44 26 43 44 40 40 38 36 39 40 39 38 38
65 61 70 78 79 79 81 78 75 68 62 63 65 59 60 66 65 58 47 41 42 44 47 49 48 50 52 61 54 42 40 43 48 41 38 30 36 34 33 31 36 36 32
74 61 59 74 74 80 77 83 80 77 72 65 62 60 58 57 52 53 55 43 41 39 44 44 43 49 40 51 59 41 44 45 45 45 37 32 33 33 30 26 26 28 25
103 79 63 71 81 81 79 73 64 60 65 66 58 56 60 61 60 51 53 48 43 37 41 40 38 35 35 33 37 45 44 42 46 42 37 31 28 27 26 22 18 17 12
118 91 71 66 79 81 82 76 67 60 51 63 62 54 58 55 47 45 42 38 33 30 29 28 23 33 38 39 44 49 50 48 46 42 37 29 25 21 18 15 13 14 14
137 120 105 88 88 90 91 83 83 71 58 62 68 58 49 54 51 45 37 35 33 27 28 28 26 28 37 42 47 49 50 48 44 41 45 35 25 19 15 14 14 16 16
158 147 132 119 102 108 102 87 68 71 73 53 66 59 51 43 47 45 40 33 30 26 23 27 31 29 34 42 44 41 42 42 39 32 31 40 33 23 18 16 16 15 13
170 160 151 146 135 130 122 113 94 71 64 52 43 58 54 41 43 43 38 35 25 23 23 30 37 36 43 45 45 40 37 35 40 34 28 22 25 29 24 21 21 23 22
173 169 167 159 157 150 136 137 121 100 81 58 28 35 46 41 37 43 43 37 25 20 20 28 29 40 41 31 25 32 40 35 41 34 32 27 18 19 26 26 22 20 17
182 180 176 167 169 162 145 141 114 96 81 72 46 23 21 32 26 29 43 39 32 28 27 26 27 36 39 27 20 17 25 24 39 40 37 33 30 22 17 21 25 21 13
185 183 181 175 174 167 157 149 138 119 101 85 59 24 24 32 32 34 44 41 38 41 37 31 37 44 37 21 14 16 26 23 39 48 38 31 28 21 13 7 7 15 14
188 186 185 184 180 180 184 186 188 177 133 97 62 25 32 36 32 44 47 39 33 40 34 33 42 55 44 26 329 335 156 104 51 38 24 21 24 18 13 9 5 359 357
192 193 189 191 190 195 203 194 192 185 162 112 75 41 31 34 32 33 33 24 18 19 29 31 42 29 31 5 315 285 269 202 137 18 13 14 9 8 8 4 2 359 352
207 202 197 196 195 198 197 177 163 163 177 180 182 52 24 21 30 30 17 5 344 321 331 346 16 14 3 15 352 321 303 309 325 256 348 349 351 348 350 349 354 355 352
211 203 202 200 195 193 190 191 188 191 207 220 211 167 65 39 34 23 353 342 347 350 2 353 348 326 297 309 358 354 332 317 291 291 268 319 332 332 340 341 344 349 348
202 197 202 204 197 193 193 193 193 197 203 192 187 175 135 71 48 36 27 11 13 12 16 359 346 347 309 290 297 311 294 282 273 274 285 305 314 324 332 325 331 336 339
194 192 195 200 202 194 193 194 194 196 192 186 196 196 182 149 42 31 35 16 351 349 333 322 301 300 295 280 282 278 273 267 274 272 280 300 306 313 319 316 321 332 335